Date,Installs,Update checks
2017-06-24,23,0
2017-06-25,11,2
2017-06-26,19,3
2017-06-27,25,3
2017-06-28,23,2
2017-06-29,26,1
2017-06-30,16,1
2017-07-01,8,3
2017-07-02,12,1
2017-07-03,13,2
2017-07-04,10,3
2017-07-05,16,0
2017-07-06,14,1
2017-07-07,6,2
2017-07-08,7,0
2017-07-09,5,4
2017-07-10,7,2
2017-07-11,6,4
2017-07-12,3,5
2017-07-13,8,1
2017-07-14,9,8
2017-07-15,17,3
2017-07-16,14,8
2017-07-17,8,3
2017-07-18,7,4
2017-07-19,9,3
2017-07-20,9,7
2017-07-21,4,5
2017-07-22,3,2
2017-07-23,8,2
2017-07-24,7,4
2017-07-25,4,2
2017-07-26,8,2
2017-07-27,5,6
2017-07-28,11,4
2017-07-29,5,5
2017-07-30,6,3
2017-07-31,6,2
2017-08-01,3,6
2017-08-02,2,2
2017-08-03,5,4
2017-08-04,5,3
2017-08-05,8,5
2017-08-06,6,4
2017-08-07,11,7
2017-08-08,10,6
2017-08-09,26,8
2017-08-10,16,9
2017-08-11,27,5
2017-08-12,21,6
2017-08-13,19,6
2017-08-14,23,10
2017-08-15,11,7
2017-08-16,9,8
2017-08-17,8,7
2017-08-18,3,11
2017-08-19,3,8
2017-08-20,9,11
2017-08-21,9,10
2017-08-22,2,9
2017-08-23,9,8
2017-08-24,5,10
2017-08-25,10,8
2017-08-26,7,8
2017-08-27,11,8
2017-08-28,5,7
2017-08-29,4,4
2017-08-30,15,8
2017-08-31,20,9
2017-09-01,11,6
2017-09-02,19,11
2017-09-03,17,15
2017-09-04,15,12
2017-09-05,20,14
2017-09-06,3,6
2017-09-07,5,11
2017-09-08,6,9
2017-09-09,3,8
2017-09-10,4,9
2017-09-11,5,11
2017-09-12,2,9
2017-09-13,5,9
2017-09-14,6,10
2017-09-15,7,8
2017-09-16,4,10
2017-09-17,1,8
2017-09-18,1,10
2017-09-19,1,10
2017-09-20,2,7
2017-09-21,2,8
2017-09-22,1,8
2017-09-23,2,7
2017-09-24,3,6
2017-09-25,2,7
2017-09-26,7,8
2017-09-27,3,7
2017-09-28,4,7
2017-09-29,5,11
2017-09-30,14,7
2017-10-01,9,8
2017-10-02,9,7
2017-10-03,6,8
2017-10-04,8,10
2017-10-05,15,14
2017-10-06,14,5
2017-10-07,20,6
2017-10-08,9,8
2017-10-09,1,9
2017-10-10,2,8
2017-10-11,2,9
2017-10-12,1,11
2017-10-13,2,6
2017-10-14,4,8
2017-10-15,5,9
2017-10-16,2,9
2017-10-17,0,8
2017-10-18,1,7
2017-10-19,2,7
2017-10-20,2,11
2017-10-21,7,7
2017-10-22,0,3
2017-10-23,3,12
2017-10-24,1,11
2017-10-25,2,10
2017-10-26,4,8
2017-10-27,0,10
2017-10-28,2,9
2017-10-29,1,10
2017-10-30,3,5
2017-10-31,5,7
2017-11-01,3,6
2017-11-02,5,9
2017-11-03,8,6
2017-11-04,5,6
2017-11-05,2,5
2017-11-06,1,3
2017-11-07,1,8
2017-11-08,1,4
2017-11-09,2,11
2017-11-10,3,7
2017-11-11,2,9
2017-11-12,4,7
2017-11-13,0,8
2017-11-14,1,8
2017-11-15,6,7
2017-11-16,4,9
2017-11-17,1,10
2017-11-18,3,9
2017-11-19,5,5
2017-11-20,2,10
2017-11-21,5,10
2017-11-22,1,8
2017-11-23,3,7
2017-11-24,3,3
2017-11-25,5,7
2017-11-26,1,6
2017-11-27,6,7
2017-11-28,2,8
2017-11-29,2,8
2017-11-30,8,8
2017-12-01,3,9
2017-12-02,5,6
2017-12-03,9,5
2017-12-04,2,9
2017-12-05,0,5
2017-12-06,1,3
2017-12-07,5,8
2017-12-08,3,9
2017-12-09,5,5
2017-12-10,5,4
2017-12-11,0,8
2017-12-12,4,8
2017-12-13,4,9
2017-12-14,6,7
2017-12-15,6,9
2017-12-16,7,7
2017-12-17,4,5
2017-12-18,2,6
2017-12-19,3,11
2017-12-20,1,9
2017-12-21,2,8
2017-12-22,0,7
2017-12-23,5,7
2017-12-24,4,8
2017-12-25,1,11
2017-12-26,3,7
2017-12-27,2,10
2017-12-28,7,12
2017-12-29,3,10
2017-12-30,4,12
2017-12-31,0,9
2018-01-01,2,10
2018-01-02,3,8
2018-01-03,6,12
2018-01-04,2,9
2018-01-05,4,9
2018-01-06,4,7
2018-01-07,3,5
2018-01-08,1,8
2018-01-09,3,11
2018-01-10,2,9
2018-01-11,2,4
2018-01-12,4,7
2018-01-13,4,6
2018-01-14,5,4
2018-01-15,1,8
2018-01-16,3,11
2018-01-17,2,8
2018-01-18,2,3
2018-01-19,3,11
2018-01-20,9,5
2018-01-21,4,9
2018-01-22,3,3
2018-01-23,0,10
2018-01-24,1,9
2018-01-25,3,9
2018-01-26,1,11
2018-01-27,3,8
2018-01-28,1,7
2018-01-29,4,5
2018-01-30,1,7
2018-01-31,4,6
2018-02-01,3,5
2018-02-02,2,11
2018-02-03,2,4
2018-02-04,2,5
2018-02-05,3,7
2018-02-06,3,9
2018-02-07,2,4
2018-02-08,0,7
2018-02-09,0,8
2018-02-10,5,7
2018-02-11,3,7
2018-02-12,3,3
2018-02-13,1,4
2018-02-14,3,9
2018-02-15,1,8
2018-02-16,3,4
2018-02-17,2,2
2018-02-18,2,6
2018-02-19,1,3
2018-02-20,0,4
2018-02-21,2,7
2018-02-22,4,4
2018-02-23,2,9
2018-02-24,2,4
2018-02-25,5,1
2018-02-26,1,2
2018-02-27,0,3
2018-02-28,5,0
2018-03-01,0,3
2018-03-02,0,0
2018-03-03,2,0
2018-03-04,2,2
2018-03-05,1,2
2018-03-06,3,0
2018-03-07,1,2
2018-03-08,1,2
2018-03-09,1,0
2018-03-10,1,0
2018-03-11,1,1
2018-03-12,3,3
2018-03-13,2,1
2018-03-14,3,1
2018-03-15,2,2
2018-03-16,2,1
2018-03-17,1,1
2018-03-18,1,0
2018-03-19,0,0
2018-03-20,0,2
2018-03-21,1,0
2018-03-22,0,2
2018-03-23,0,0
2018-03-24,1,1
2018-03-25,0,2
2018-03-26,0,1
2018-03-27,1,1
2018-03-28,1,0
2018-03-29,4,1
2018-03-30,3,0
2018-03-31,3,1
2018-04-01,4,0
2018-04-02,2,3
2018-04-03,2,0
2018-04-04,2,1
2018-04-05,3,0
2018-04-06,2,2
2018-04-07,0,5
2018-04-08,3,2
2018-04-09,2,0
2018-04-10,1,0
2018-04-11,0,0
2018-04-12,1,0
2018-04-13,1,1
2018-04-14,1,2
2018-04-15,2,2
2018-04-16,3,1
2018-04-17,1,2
2018-04-18,3,1
2018-04-19,3,1
2018-04-20,3,1
2018-04-21,0,3
2018-04-22,1,1
2018-04-23,1,3
2018-04-24,2,3
2018-04-25,2,0
2018-04-26,0,0
2018-04-27,0,2
2018-04-28,1,2
2018-04-29,0,0
2018-04-30,2,1
2018-05-01,1,0
2018-05-02,2,0
2018-05-03,3,2
2018-05-04,1,1
2018-05-05,1,2
2018-05-06,5,2
2018-05-07,5,0
2018-05-08,3,2
2018-05-09,1,1
2018-05-10,4,3
2018-05-11,5,1
2018-05-12,3,2
2018-05-13,1,0
2018-05-14,3,2
2018-05-15,2,2
2018-05-16,0,1
2018-05-17,4,1
2018-05-18,2,1
2018-05-19,4,0
2018-05-20,3,2
2018-05-21,3,3
2018-05-22,1,2
2018-05-23,4,0
2018-05-24,2,3
2018-05-25,2,2
2018-05-26,1,1
2018-05-27,3,1
2018-05-28,0,1
2018-05-29,3,3
2018-05-30,1,2
2018-05-31,0,1
2018-06-01,2,2
2018-06-02,1,1
2018-06-03,2,1
2018-06-04,2,1
2018-06-05,0,0
2018-06-06,1,1
2018-06-07,1,1
2018-06-08,1,2
2018-06-09,2,0
2018-06-10,3,1
2018-06-11,1,1
2018-06-12,0,3
2018-06-13,0,0
2018-06-14,1,2
2018-06-15,0,0
2018-06-16,0,0
2018-06-17,4,3
2018-06-18,3,1
2018-06-19,2,2
2018-06-20,4,0
2018-06-21,6,0
2018-06-22,7,1
2018-06-23,1,1
2018-06-24,1,2
2018-06-25,0,2
2018-06-26,0,0
2018-06-27,0,2
2018-06-28,0,1
2018-06-29,4,1
2018-06-30,3,1
2018-07-01,5,2
2018-07-02,5,3
2018-07-03,3,0
2018-07-04,1,0
2018-07-05,0,1
2018-07-06,2,0
2018-07-07,1,0
2018-07-08,3,1
2018-07-09,2,1
2018-07-10,3,0
2018-07-11,1,0
2018-07-12,1,1
2018-07-13,0,0
2018-07-14,3,1
2018-07-15,4,0
2018-07-16,1,0
2018-07-17,0,1
2018-07-18,2,1
2018-07-19,6,1
2018-07-20,4,1
2018-07-21,1,2
2018-07-22,3,1
2018-07-23,4,1
2018-07-24,4,0
2018-07-25,1,0
2018-07-26,2,1
2018-07-27,4,0
2018-07-28,0,2
2018-07-29,1,2
2018-07-30,2,1
2018-07-31,0,1
2018-08-01,1,3
2018-08-02,0,1
2018-08-03,0,0
2018-08-04,1,1
2018-08-05,1,1
2018-08-06,0,0
2018-08-07,0,1
2018-08-08,1,1
2018-08-09,1,1
2018-08-10,2,0
2018-08-11,2,1
2018-08-12,3,2
2018-08-13,2,2
2018-08-14,1,2
2018-08-15,0,1
2018-08-16,1,1
2018-08-17,0,3
2018-08-18,2,0
2018-08-19,6,1
2018-08-20,6,1
2018-08-21,9,2
2018-08-22,3,2
2018-08-23,1,3
2018-08-24,0,2
2018-08-25,0,0
2018-08-26,1,5
2018-08-27,0,2
2018-08-28,1,3
2018-08-29,0,2
2018-08-30,1,2
2018-08-31,1,2
2018-09-01,1,0
2018-09-02,1,3
2018-09-03,1,2
2018-09-04,2,1
2018-09-05,4,0
2018-09-06,2,0
2018-09-07,1,1
2018-09-08,1,1
2018-09-09,0,3
2018-09-10,1,3
2018-09-11,2,3
2018-09-12,2,0
2018-09-13,1,0
2018-09-14,2,1
2018-09-15,0,3
2018-09-16,1,1
2018-09-17,3,2
2018-09-18,1,2
2018-09-19,0,1
2018-09-20,0,3
2018-09-21,0,0
2018-09-22,0,2
2018-09-23,0,3
2018-09-24,2,4
2018-09-25,1,3
2018-09-26,1,2
2018-09-27,2,1
2018-09-28,1,1
2018-09-29,3,3
2018-09-30,2,2
2018-10-01,1,2
2018-10-02,0,0
2018-10-03,0,2
2018-10-04,0,2
2018-10-05,1,2
2018-10-06,2,3
2018-10-07,1,1
2018-10-08,1,1
2018-10-09,0,3
2018-10-10,0,0
2018-10-11,2,2
2018-10-12,1,1
2018-10-13,1,1
2018-10-14,3,0
2018-10-15,1,3
2018-10-16,1,4
2018-10-17,0,2
2018-10-18,0,0
2018-10-19,1,1
2018-10-20,0,1
2018-10-21,1,0
2018-10-22,0,3
2018-10-23,0,2
2018-10-24,1,1
2018-10-25,1,5
2018-10-26,0,1
2018-10-27,1,1
2018-10-28,2,1
2018-10-29,1,3
2018-10-30,1,0
2018-10-31,1,3
2018-11-01,0,3
2018-11-02,0,1
2018-11-03,1,0
2018-11-04,0,1
2018-11-05,0,4
2018-11-06,1,2
2018-11-07,0,2
2018-11-08,0,3
2018-11-09,0,1
2018-11-10,1,1
2018-11-11,0,1
2018-11-12,1,2
2018-11-13,1,3
2018-11-14,1,4
2018-11-15,0,6
2018-11-16,3,3
2018-11-17,1,4
2018-11-18,0,1
2018-11-19,1,0
2018-11-20,0,3
2018-11-21,2,4
2018-11-22,0,3
2018-11-23,0,2
2018-11-24,2,0
2018-11-25,2,2
2018-11-26,1,2
2018-11-27,1,2
2018-11-28,0,2
2018-11-29,3,0
2018-11-30,0,0
2018-12-01,1,1
2018-12-02,0,1
2018-12-03,0,1
2018-12-04,0,1
2018-12-05,0,0
2018-12-06,2,2
2018-12-07,1,1
2018-12-08,1,0
2018-12-09,0,1
2018-12-10,2,2
2018-12-11,5,2
2018-12-12,3,2
2018-12-13,5,1
2018-12-14,2,1
2018-12-15,1,1
2018-12-16,1,1
2018-12-17,0,2
2018-12-18,2,3
2018-12-19,1,1
2018-12-20,0,1
2018-12-21,0,0
2018-12-22,0,1
2018-12-23,0,1
2018-12-24,0,2
2018-12-25,0,0
2018-12-26,0,0
2018-12-27,1,2
2018-12-28,0,0
2018-12-29,0,1
2018-12-30,0,0
2018-12-31,0,1
2019-01-01,1,0
2019-01-02,1,0
2019-01-03,0,1
2019-01-04,3,1
2019-01-05,1,1
2019-01-06,0,1
2019-01-07,2,2
2019-01-08,2,1
2019-01-09,1,1
2019-01-10,1,1
2019-01-11,1,0
2019-01-12,3,1
2019-01-13,4,1
2019-01-14,5,0
2019-01-15,3,0
2019-01-16,4,0
2019-01-17,1,0
2019-01-18,0,0
2019-01-19,3,1
2019-01-20,3,1
2019-01-21,4,0
2019-01-22,1,0
2019-01-23,1,1
2019-01-24,3,0
2019-01-25,7,1
2019-01-26,3,1
2019-01-27,7,0
2019-01-28,7,1
2019-01-29,1,1
2019-01-30,5,0
2019-01-31,2,0
2019-02-01,3,0
2019-02-02,4,1
2019-02-03,2,1
2019-02-04,0,1
2019-02-05,1,0
2019-02-06,2,0
2019-02-07,1,0
2019-02-08,0,1
2019-02-09,2,1
2019-02-10,2,0
2019-02-11,1,0
2019-02-12,2,2
2019-02-13,1,1
2019-02-14,1,1
2019-02-15,2,3
2019-02-16,2,0
2019-02-17,4,1
2019-02-18,1,1
2019-02-19,0,0
2019-02-20,0,0
2019-02-21,0,0
2019-02-22,1,0
2019-02-23,1,0
2019-02-24,1,0
2019-02-25,0,0
2019-02-26,0,0
2019-02-27,0,0
2019-02-28,1,0
2019-03-01,0,0
2019-03-02,1,0
2019-03-03,1,1
2019-03-04,2,0
2019-03-05,1,1
2019-03-06,0,1
2019-03-07,0,0
2019-03-08,1,0
2019-03-09,1,0
2019-03-10,1,0
2019-03-11,0,0
2019-03-12,0,0
2019-03-13,2,0
2019-03-14,0,0
2019-03-15,0,0
2019-03-16,0,0
2019-03-17,2,0
2019-03-18,2,2
2019-03-19,1,0
2019-03-20,1,0
2019-03-21,1,0
2019-03-22,1,0
2019-03-23,0,0
2019-03-24,0,0
2019-03-25,2,0
2019-03-26,1,0
2019-03-27,0,0
2019-03-28,0,0
2019-03-29,1,0
2019-03-30,0,0
2019-03-31,0,0
2019-04-01,0,0
2019-04-02,0,0
2019-04-03,0,1
2019-04-04,0,0
2019-04-05,0,0
2019-04-06,0,1
2019-04-07,0,0
2019-04-08,0,0
2019-04-09,1,1
2019-04-10,1,1
2019-04-11,0,0
2019-04-12,0,1
2019-04-13,0,0
2019-04-14,1,2
2019-04-15,0,0
2019-04-16,0,0
2019-04-17,2,0
2019-04-18,1,0
2019-04-19,0,0
2019-04-20,1,1
2019-04-21,0,0
2019-04-22,0,0
2019-04-23,0,0
2019-04-24,0,0
2019-04-25,1,1
2019-04-26,1,1
2019-04-27,0,0
2019-04-28,0,2
2019-04-29,0,0
2019-04-30,0,1
2019-05-01,1,1
2019-05-02,0,0
2019-05-03,1,0
2019-05-04,3,0
2019-05-05,0,0
2019-05-06,1,0
2019-05-07,0,0
2019-05-08,1,1
2019-05-09,0,0
2019-05-10,0,0
2019-05-11,0,1
2019-05-12,3,0
2019-05-13,0,1
2019-05-14,1,0
2019-05-15,0,2
2019-05-16,2,1
2019-05-17,0,2
2019-05-18,2,2
2019-05-19,0,2
2019-05-20,0,1
2019-05-21,0,1
2019-05-22,1,0
2019-05-23,1,1
2019-05-24,1,2
2019-05-25,1,0
2019-05-26,3,1
2019-05-27,0,0
2019-05-28,2,1
2019-05-29,0,0
2019-05-30,2,0
2019-05-31,2,1
2019-06-01,1,1
2019-06-02,1,0
2019-06-03,2,1
2019-06-04,1,0
2019-06-05,1,0
2019-06-06,0,0
2019-06-07,0,1
2019-06-08,0,0
2019-06-09,1,1
2019-06-10,0,0
2019-06-11,0,1
2019-06-12,0,0
2019-06-13,0,1
2019-06-14,2,1
2019-06-15,2,1
2019-06-16,1,0
2019-06-17,0,0
2019-06-18,0,0
2019-06-19,0,0
2019-06-20,0,0
2019-06-21,0,1
2019-06-22,1,0
2019-06-23,1,0
2019-06-24,0,0
2019-06-25,0,1
2019-06-26,2,0
2019-06-27,0,0
2019-06-28,0,0
2019-06-29,0,1
2019-06-30,0,2
2019-07-01,0,0
2019-07-02,0,0
2019-07-03,0,0
2019-07-04,0,0
2019-07-05,0,0
2019-07-06,1,0
2019-07-07,0,0
2019-07-08,0,0
2019-07-09,0,0
2019-07-10,0,0
2019-07-11,0,1
2019-07-12,0,0
2019-07-13,0,1
2019-07-14,0,0
2019-07-15,1,0
2019-07-16,2,1
2019-07-17,0,0
2019-07-18,0,0
2019-07-19,0,0
2019-07-20,0,0
2019-07-21,3,0
2019-07-22,0,0
2019-07-23,1,0
2019-07-24,0,2
2019-07-25,1,0
2019-07-26,0,0
2019-07-27,0,0
2019-07-28,1,0
2019-07-29,0,0
2019-07-30,1,1
2019-07-31,1,0
2019-08-01,1,1
2019-08-02,1,0
2019-08-03,1,0
2019-08-04,2,0
2019-08-05,4,0
2019-08-06,1,0
2019-08-07,0,1
2019-08-08,1,0
2019-08-09,1,1
2019-08-10,0,0
2019-08-11,1,0
2019-08-12,0,0
2019-08-13,0,0
2019-08-14,1,0
2019-08-15,1,0
2019-08-16,0,0
2019-08-17,0,0
2019-08-18,0,1
2019-08-19,0,0
2019-08-20,0,0
2019-08-21,0,1
2019-08-22,0,0
2019-08-23,0,1
2019-08-24,1,1
2019-08-25,2,0
2019-08-26,0,1
2019-08-27,0,2
2019-08-28,0,0
2019-08-29,1,0
2019-08-30,0,0
2019-08-31,0,0
2019-09-01,0,0
2019-09-02,0,0
2019-09-03,0,1
2019-09-04,0,1
2019-09-05,1,0
2019-09-06,1,0
2019-09-07,0,0
2019-09-08,2,0
2019-09-09,0,1
2019-09-10,0,0
2019-09-11,1,0
2019-09-12,0,0
2019-09-13,1,0
2019-09-14,1,0
2019-09-15,1,0
2019-09-16,2,0
2019-09-17,0,0
2019-09-18,0,0
2019-09-19,0,1
2019-09-20,1,1
2019-09-21,0,0
2019-09-22,0,0
2019-09-23,0,0
2019-09-24,0,0
2019-09-25,0,0
2019-09-26,0,0
2019-09-27,0,0
2019-09-28,0,0
2019-09-29,0,0
2019-09-30,0,0
2019-10-01,1,0
2019-10-02,2,0
2019-10-03,0,0
2019-10-04,0,0
2019-10-05,0,0
2019-10-06,0,0
2019-10-07,0,0
2019-10-08,0,0
2019-10-09,1,0
2019-10-10,0,0
2019-10-11,0,0
2019-10-12,1,0
2019-10-13,0,0
2019-10-14,0,0
2019-10-15,0,0
2019-10-16,0,0
2019-10-17,0,0
2019-10-18,2,0
2019-10-19,1,0
2019-10-20,0,0
2019-10-21,0,1
2019-10-22,0,0
2019-10-23,0,0
2019-10-24,0,0
2019-10-25,0,0
2019-10-26,0,0
2019-10-27,0,0
2019-10-28,0,0
2019-10-29,0,0
2019-10-30,0,0
2019-10-31,1,0
2019-11-01,2,0
2019-11-02,1,0
2019-11-03,0,0
2019-11-04,1,0
2019-11-05,0,0
2019-11-06,0,0
2019-11-07,0,0
2019-11-08,0,0
2019-11-09,0,0
2019-11-10,0,0
2019-11-11,0,0
2019-11-12,0,0
2019-11-13,0,0
2019-11-14,0,0
2019-11-15,0,0
2019-11-16,0,0
2019-11-17,0,0
2019-11-18,0,0
2019-11-19,0,0
2019-11-20,0,0
2019-11-21,0,0
2019-11-22,0,0
2019-11-23,0,0
2019-11-24,0,0
2019-11-25,0,0
2019-11-26,1,0
2019-11-27,2,0
2019-11-28,0,0
2019-11-29,0,0
2019-11-30,0,0
2019-12-01,2,0
2019-12-02,1,0
2019-12-03,0,0
2019-12-04,0,0
2019-12-05,0,0
2019-12-06,0,0
2019-12-07,0,0
2019-12-08,0,0
2019-12-09,0,0
2019-12-10,0,0
2019-12-11,0,0
2019-12-12,0,0
2019-12-13,0,0
2019-12-14,0,0
2019-12-15,0,0
2019-12-16,0,0
2019-12-17,1,1
2019-12-18,1,1
2019-12-19,0,0
2019-12-20,0,0
2019-12-21,0,0
2019-12-22,0,0
2019-12-23,0,0
2019-12-24,0,1
2019-12-25,0,0
2019-12-26,0,0
2019-12-27,0,0
2019-12-28,0,0
2019-12-29,0,0
2019-12-30,0,0
2019-12-31,0,0
2020-01-01,0,0
2020-01-02,1,0
2020-01-03,2,0
2020-01-04,3,0
2020-01-05,0,0
2020-01-06,0,0
2020-01-07,0,0
2020-01-08,1,0
2020-01-09,0,1
2020-01-10,2,0
2020-01-11,0,1
2020-01-12,0,0
2020-01-13,0,0
2020-01-14,0,0
2020-01-15,0,1
2020-01-16,1,0
2020-01-17,0,1
2020-01-18,0,1
2020-01-19,3,1
2020-01-20,0,0
2020-01-21,1,2
2020-01-22,1,1
2020-01-23,2,0
2020-01-24,0,0
2020-01-25,3,0
2020-01-26,0,0
2020-01-27,1,0
2020-01-28,1,1
2020-01-29,0,0
2020-01-30,1,1
2020-01-31,1,2
2020-02-01,3,0
2020-02-02,0,0
2020-02-03,0,0
2020-02-04,0,0
2020-02-05,0,0
2020-02-06,0,0
2020-02-07,0,1
2020-02-08,1,0
2020-02-09,1,0
2020-02-10,0,1
2020-02-11,0,0
2020-02-12,0,0
2020-02-13,0,0
2020-02-14,0,0
2020-02-15,0,0
2020-02-16,0,1
2020-02-17,0,0
2020-02-18,0,0
2020-02-19,0,1
2020-02-20,0,1
2020-02-21,0,0
2020-02-22,0,0
2020-02-23,0,1
2020-02-24,0,0
2020-02-25,0,0
2020-02-26,0,0
2020-02-27,0,0
2020-02-28,0,0
2020-02-29,0,0
2020-03-01,0,0
2020-03-02,0,1
2020-03-03,0,0
2020-03-04,0,0
2020-03-05,0,0
2020-03-06,1,0
2020-03-07,0,0
2020-03-08,0,0
2020-03-09,1,0
2020-03-10,0,0
2020-03-11,0,0
2020-03-12,0,0
2020-03-13,0,0
2020-03-14,0,0
2020-03-15,0,0
2020-03-16,0,1
2020-03-17,0,0
2020-03-18,0,0
2020-03-19,0,0
2020-03-20,0,0
2020-03-21,0,0
2020-03-22,0,0
2020-03-23,0,0
2020-03-24,0,0
2020-03-25,0,0
2020-03-26,0,0
2020-03-27,0,0
2020-03-28,0,0
2020-03-29,0,0
2020-03-30,0,0
2020-03-31,0,0
2020-04-01,0,0
2020-04-02,0,0
2020-04-03,0,0
2020-04-04,0,0
2020-04-05,0,0
2020-04-06,0,0
2020-04-07,0,0
2020-04-08,0,0
2020-04-09,2,0
2020-04-10,0,0
2020-04-11,1,0
2020-04-12,1,1
2020-04-13,0,0
2020-04-14,0,0
2020-04-15,0,0
2020-04-16,0,0
2020-04-17,0,0
2020-04-18,1,0
2020-04-19,0,1
2020-04-20,0,0
2020-04-21,1,1
2020-04-22,1,0
2020-04-23,1,0
2020-04-24,0,0
2020-04-25,0,0
2020-04-26,1,0
2020-04-27,1,1
2020-04-28,0,0
2020-04-29,1,0
2020-04-30,0,1
2020-05-01,0,0
2020-05-02,1,0
2020-05-03,2,0
2020-05-04,1,0
2020-05-05,0,0
2020-05-06,2,0
2020-05-07,0,0
2020-05-08,2,1
2020-05-09,0,0
2020-05-10,0,1
2020-05-11,0,0
2020-05-12,0,0
2020-05-13,0,0
2020-05-14,0,0
2020-05-15,0,1
2020-05-16,0,0
2020-05-17,0,0
2020-05-18,0,0
2020-05-19,0,0
2020-05-20,0,0
2020-05-21,0,0
2020-05-22,1,0
2020-05-23,0,0
2020-05-24,2,0
2020-05-25,1,0
2020-05-26,0,0
2020-05-27,1,1
2020-05-28,0,0
2020-05-29,0,0
2020-05-30,1,0
2020-05-31,0,0
2020-06-01,0,0
2020-06-02,0,1
2020-06-03,0,0
2020-06-04,0,0
2020-06-05,0,0
2020-06-06,0,0
2020-06-07,0,0
2020-06-08,0,0
2020-06-09,1,0
2020-06-10,0,0
2020-06-11,0,0
2020-06-12,0,0
2020-06-13,0,0
2020-06-14,0,0
2020-06-15,0,0
2020-06-16,1,0
2020-06-17,2,0
2020-06-18,0,0
2020-06-19,1,1
2020-06-20,1,1
2020-06-21,3,0
2020-06-22,1,0
2020-06-23,1,0
2020-06-24,3,0
2020-06-25,0,0
2020-06-26,0,0
2020-06-27,0,0
2020-06-28,1,0
2020-06-29,0,0
2020-06-30,0,0
2020-07-01,0,0
2020-07-02,0,0
2020-07-03,2,0
2020-07-04,0,0
2020-07-05,0,0
2020-07-06,0,0
2020-07-07,0,0
2020-07-08,0,0
2020-07-09,0,0
2020-07-10,0,0
2020-07-11,0,0
2020-07-12,1,0
2020-07-13,1,0
2020-07-14,0,0
2020-07-15,0,0
2020-07-16,0,0
2020-07-17,0,0
2020-07-18,0,0
2020-07-19,2,0
2020-07-20,0,0
2020-07-21,0,0
2020-07-22,0,0
2020-07-23,1,0
2020-07-24,0,0
2020-07-25,1,0
2020-07-26,0,0
2020-07-27,0,0
2020-07-28,1,1
2020-07-29,0,0
2020-07-30,0,0
2020-07-31,1,1
2020-08-01,0,0
2020-08-02,0,0
2020-08-03,0,0
2020-08-04,0,0
2020-08-05,1,0
2020-08-06,0,0
2020-08-07,0,0
2020-08-08,1,1
2020-08-09,2,0
2020-08-10,0,0
2020-08-11,0,0
2020-08-12,2,0
2020-08-13,0,0
2020-08-14,1,0
2020-08-15,0,0
2020-08-16,0,0
2020-08-17,0,0
2020-08-18,0,0
2020-08-19,0,1
2020-08-20,0,0
2020-08-21,0,0
2020-08-22,1,1
2020-08-23,1,1
2020-08-24,0,0
2020-08-25,1,1
2020-08-26,0,0
2020-08-27,0,1
2020-08-28,0,0
2020-08-29,0,0
2020-08-30,0,0
2020-08-31,0,0
2020-09-01,0,0
2020-09-02,0,0
2020-09-03,1,0
2020-09-04,0,0
2020-09-05,0,0
2020-09-06,0,0
2020-09-07,0,0
2020-09-08,0,0
2020-09-09,0,0
2020-09-10,0,0
2020-09-11,0,1
2020-09-12,0,0
2020-09-13,0,0
2020-09-14,0,0
2020-09-15,0,0
2020-09-16,1,0
2020-09-17,0,0
2020-09-18,0,0
2020-09-19,0,0
2020-09-20,2,0
2020-09-21,2,0
2020-09-22,3,0
2020-09-23,2,1
2020-09-24,0,0
2020-09-25,0,0
2020-09-26,1,2
2020-09-27,0,0
2020-09-28,0,0
2020-09-29,0,0
2020-09-30,1,1
2020-10-01,4,0
2020-10-02,0,0
2020-10-03,1,0
2020-10-04,0,0
2020-10-05,1,0
2020-10-06,0,0
2020-10-07,2,1
2020-10-08,1,0
2020-10-09,0,0
2020-10-10,0,0
2020-10-11,0,0
2020-10-12,0,1
2020-10-13,0,0
2020-10-14,0,0
2020-10-15,0,0
2020-10-16,0,1
2020-10-17,0,0
2020-10-18,0,0
2020-10-19,1,0
2020-10-20,0,0
2020-10-21,0,0
2020-10-22,1,0
2020-10-23,1,0
2020-10-24,0,0
2020-10-25,0,0
2020-10-26,0,0
2020-10-27,0,0
2020-10-28,0,0
2020-10-29,0,0
2020-10-30,0,0
2020-10-31,1,0
2020-11-01,1,0
2020-11-02,0,0
2020-11-03,1,0
2020-11-04,3,0
2020-11-05,1,0
2020-11-06,0,0
2020-11-07,0,1
2020-11-08,0,0
2020-11-09,0,2
2020-11-10,2,0
2020-11-11,2,0
2020-11-12,0,0
2020-11-13,1,1
2020-11-14,0,0
2020-11-15,0,0
2020-11-16,0,0
2020-11-17,1,0
2020-11-18,0,0
2020-11-19,1,0
2020-11-20,6,0
2020-11-21,5,0
2020-11-22,2,2
2020-11-23,3,0
2020-11-24,1,1
2020-11-25,1,0
2020-11-26,1,1
2020-11-27,2,1
2020-11-28,2,0
2020-11-29,0,1
2020-11-30,1,0
2020-12-01,0,0
2020-12-02,3,0
2020-12-03,0,1
2020-12-04,0,0
2020-12-05,1,1
2020-12-06,0,0
2020-12-07,1,0
2020-12-08,0,0
2020-12-09,0,0
2020-12-10,0,0
2020-12-11,0,0
2020-12-12,1,0
2020-12-13,0,0
2020-12-14,1,0
2020-12-15,1,0
2020-12-16,0,0
2020-12-17,1,0
2020-12-18,2,0
2020-12-19,0,0
2020-12-20,1,0
2020-12-21,2,0
2020-12-22,0,0
2020-12-23,3,0
2020-12-24,1,0
2020-12-25,1,0
2020-12-26,1,0
2020-12-27,0,1
2020-12-28,2,0
2020-12-29,0,0
2020-12-30,0,0
2020-12-31,1,0
2021-01-01,0,0
2021-01-02,0,0
2021-01-03,0,0
2021-01-04,0,0
2021-01-05,0,1
2021-01-06,0,0
2021-01-07,2,0
2021-01-08,2,0
2021-01-09,0,0
2021-01-10,0,0
2021-01-11,1,0
2021-01-12,1,0
2021-01-13,1,0
2021-01-14,1,1
2021-01-15,1,1
2021-01-16,1,0
2021-01-17,0,0
2021-01-18,0,0
2021-01-19,1,0
2021-01-20,2,0
2021-01-21,0,2
2021-01-22,0,0
2021-01-23,0,0
2021-01-24,1,0
2021-01-25,0,2
2021-01-26,0,0
2021-01-27,0,0
2021-01-28,0,0
2021-01-29,0,0
2021-01-30,1,1
2021-01-31,0,0
2021-02-01,2,0
2021-02-02,1,0
2021-02-03,0,0
2021-02-04,0,0
2021-02-05,0,0
2021-02-06,2,0
2021-02-07,0,0
2021-02-08,0,0
2021-02-09,2,0
2021-02-10,0,0
2021-02-11,0,3
2021-02-12,3,1
2021-02-13,0,1
2021-02-14,1,0
2021-02-15,1,0
2021-02-16,1,0
2021-02-17,0,2
2021-02-18,0,4
2021-02-19,3,0
2021-02-20,1,3
2021-02-21,0,0
2021-02-22,0,2
2021-02-23,1,0
2021-02-24,3,2
2021-02-25,0,2
2021-02-26,0,2
2021-02-27,2,1
2021-02-28,2,1
2021-03-01,4,2
2021-03-02,1,3
2021-03-03,1,0
2021-03-04,0,4
2021-03-05,0,3
2021-03-06,0,3
2021-03-07,0,5
2021-03-08,0,2
2021-03-09,1,3
2021-03-10,0,2
2021-03-11,1,4
2021-03-12,0,2
2021-03-13,0,1
2021-03-14,0,1
2021-03-15,2,4
2021-03-16,0,2
2021-03-17,2,0
2021-03-18,0,0
2021-03-19,1,2
2021-03-20,0,1
2021-03-21,1,2
2021-03-22,0,1
2021-03-23,2,0
2021-03-24,2,0
2021-03-25,2,3
2021-03-26,2,0
2021-03-27,0,1
2021-03-28,3,1
2021-03-29,3,1
2021-03-30,0,0
2021-03-31,1,1
2021-04-01,0,1
2021-04-02,2,0
2021-04-03,3,0
2021-04-04,2,2
2021-04-05,2,1
2021-04-06,2,0
2021-04-07,2,1
2021-04-08,1,1
2021-04-09,1,1
2021-04-10,0,1
2021-04-11,0,3
2021-04-12,0,2
2021-04-13,0,2
2021-04-14,0,2
2021-04-15,0,4
2021-04-16,0,3
2021-04-17,0,2
2021-04-18,2,1
2021-04-19,1,2
2021-04-20,1,1
2021-04-21,0,2
2021-04-22,1,2
2021-04-23,0,2
2021-04-24,0,3
2021-04-25,0,0
2021-04-26,0,2
2021-04-27,0,1
2021-04-28,0,1
2021-04-29,0,3
2021-04-30,2,2
2021-05-01,2,1
2021-05-02,3,1
2021-05-03,1,4
2021-05-04,0,2
2021-05-05,0,3
2021-05-06,0,2
2021-05-07,1,3
2021-05-08,0,2
2021-05-09,0,2
2021-05-10,2,2
2021-05-11,1,2
2021-05-12,1,2
2021-05-13,0,1
2021-05-14,0,2
2021-05-15,0,2
2021-05-16,0,1
2021-05-17,5,3
2021-05-18,0,0
2021-05-19,0,2
2021-05-20,1,2
2021-05-21,2,2
2021-05-22,0,1
2021-05-23,0,1
2021-05-24,0,1
2021-05-25,0,1
2021-05-26,1,3
2021-05-27,1,3
2021-05-28,0,4
2021-05-29,1,0
2021-05-30,0,1
2021-05-31,0,1
2021-06-01,0,2
2021-06-02,0,0
2021-06-03,1,4
2021-06-04,1,1
2021-06-05,1,1
2021-06-06,2,1
2021-06-07,1,2
2021-06-08,1,1
2021-06-09,0,2
2021-06-10,0,1
2021-06-11,0,2
2021-06-12,0,2
2021-06-13,0,1
2021-06-14,0,4
2021-06-15,0,1
2021-06-16,0,2
2021-06-17,1,2
2021-06-18,0,3
2021-06-19,0,1
2021-06-20,1,1
2021-06-21,0,2
2021-06-22,0,0
2021-06-23,0,0
2021-06-24,0,1
2021-06-25,0,1
2021-06-26,0,1
2021-06-27,0,1
2021-06-28,0,0
2021-06-29,0,1
2021-06-30,0,1
2021-07-01,0,1
2021-07-02,0,1
2021-07-03,1,0
2021-07-04,0,1
2021-07-05,0,1
2021-07-06,0,1
2021-07-07,0,0
2021-07-08,0,1
2021-07-09,0,0
2021-07-10,0,1
2021-07-11,0,1
2021-07-12,2,1
2021-07-13,0,1
2021-07-14,0,0
2021-07-15,0,1
2021-07-16,0,1
2021-07-17,0,1
2021-07-18,0,0
2021-07-19,0,0
2021-07-20,0,1
2021-07-21,0,1
2021-07-22,0,1
2021-07-23,0,1
2021-07-24,0,0
2021-07-25,0,1
2021-07-26,1,1
2021-07-27,0,1
2021-07-28,0,2
2021-07-29,0,1
2021-07-30,1,1
2021-07-31,0,0
2021-08-01,0,2
2021-08-02,0,1
2021-08-03,1,1
2021-08-04,1,1
2021-08-05,1,1
2021-08-06,1,1
2021-08-07,0,2
2021-08-08,0,0
2021-08-09,0,1
2021-08-10,0,0
2021-08-11,0,1
2021-08-12,2,0
2021-08-13,0,1
2021-08-14,0,1
2021-08-15,0,1
2021-08-16,0,0
2021-08-17,0,1
2021-08-18,0,1
2021-08-19,0,0
2021-08-20,0,2
2021-08-21,0,1
2021-08-22,0,1
2021-08-23,0,1
2021-08-24,0,3
2021-08-25,0,1
2021-08-26,0,2
2021-08-27,0,2
2021-08-28,0,0
2021-08-29,0,1
2021-08-30,0,0
2021-08-31,0,2
2021-09-01,0,1
2021-09-02,1,1
2021-09-03,0,1
2021-09-04,1,1
2021-09-05,1,0
2021-09-06,1,1
2021-09-07,0,1
2021-09-08,0,0
2021-09-09,0,2
2021-09-10,0,0
2021-09-11,0,0
2021-09-12,1,1
2021-09-13,1,4
2021-09-14,1,1
2021-09-15,0,1
2021-09-16,2,1
2021-09-17,0,1
2021-09-18,1,1
2021-09-19,0,1
2021-09-20,0,1
2021-09-21,0,0
2021-09-22,0,1
2021-09-23,0,2
2021-09-24,0,1
2021-09-25,0,0
2021-09-26,0,1
2021-09-27,0,0
2021-09-28,0,2
2021-09-29,0,0
2021-09-30,0,1
2021-10-01,2,2
2021-10-02,0,1
2021-10-03,0,1
2021-10-04,0,1
2021-10-05,0,1
2021-10-06,1,1
2021-10-07,1,0
2021-10-08,0,1
2021-10-09,0,1
2021-10-10,0,2
2021-10-11,0,3
2021-10-12,0,2
2021-10-13,0,1
2021-10-14,0,1
2021-10-15,0,2
2021-10-16,0,2
2021-10-17,0,1
2021-10-18,0,3
2021-10-19,0,1
2021-10-20,0,1
2021-10-21,1,1
2021-10-22,0,2
2021-10-23,0,1
2021-10-24,0,1
2021-10-25,0,1
2021-10-26,1,1
2021-10-27,0,1
2021-10-28,1,1
2021-10-29,0,1
2021-10-30,0,1
2021-10-31,1,2
2021-11-01,0,1